User: anonymous   Login
Location: Ciula Mare
(45.6000°N, 22.8167°E)
Time: 17:02:28
(UTC+00:00)
Language:

Spot 1 - Orbit

View from above orbital plane
View from above orbital plane
View from above satellite
View from above satellite

Ground track
Ground track

The orbit data is extracted from the following two-line orbital elements,

1 16613U 86019A   23152.15210674  .00000839  00000-0  14145-3 0  9998
2 16613  98.7509 359.6208 0140996 134.8532 226.4227 14.66182404647979
Epoch (UTC): 01 June 2023 03:39:02
Eccentricity: 0.0140996
inclination: 98.7509°
perigee height: 574 km
apogee height: 773 km
right ascension of ascending node: 359.6208°
argument of perigee: 134.8532°
revolutions per day: 14.66182404
mean anomaly at epoch: 226.4227°
orbit number at epoch: 64797

The dashed part of the orbit path shows where the satellite is in the earth's shadow,  

DLR